Погода Ирбейское

Погода Ирбейское : погода сейчас, прогноз погоды и архив. Всё, что Вы хотите узнать о погоде Ирбейское!

Поиск расширенной информации на нашем сайте:

Другие новости

Новости СМИ2

Главная страница сайта

Новости сайта

03.07.2017

Напоминаем, что на нашем специализированном сайте Метеоцентр.Азия вы можете получить высокодетализированные автоматические прогнозы погоды по пунктам России, СНГ и мира в авиационном формате (включающие направление и скорость ветра, видимость, явления погоды, количество и форму облачности, нижнюю и верхнюю границу облачности).

Рекомендуем: купить подарок мужу в Екатеринбурге

Погода Ирбейское - сегодня

Время (UTC), дата Ветер
(°,м/с) 
Видим.   Явления Облачность Т
(°С)
Тd
(°С)
f(%) Тe
(°С)
Pmin
(гПа)
dP
(гПа)
Po
(мм)
O2
(г/м3)
Тmin Tmax R s Состояние
почвы
00 18.02.18 тихо ()   н/о  слаб. снег  9/4 2000 м средняя, верхняя 
[Ac lent|Cs]
-25.4 -28.4 76 -25  1041.2  -0.2  754  337  -26    0.0  54  равномерный
сухой снег
100% 
03 18.02.18 тихо ()   4000 м  слаб. снег  9/3 2000 м средняя, верхняя 
[Ac lent|Cs]
-22.1 -25.3 75 -22  1040.3  -0.4  754  332           
06 18.02.18 260 (З) 20000 м  {снег}  8/3 2000 м средняя, верхняя 
[Ac lent|Ci sp]
-13.2 -18.1 67 -17  1037.9  -1.2  753  320           
09 18.02.18 250 (З) 4000 м  слаб. снег  9/0 верхняя 
[Cs]
-11.6 -15.7 72 -14  1036.7  -0.9  752  318           
12 18.02.18 тихо ()   н/о  слаб. снег  9/0 верхняя 
[Cs]
-13.8 -16.4 81 -14  1036.5  -0.4  752  321    -11.5  0.2     
15 18.02.18 тихо ()   н/о  {снег}  9/0 верхняя 
[Cs]
-18.1 -20.2 84 -18  1036.7  -0.4  752  326           
18 18.02.18 тихо ()   н/о  {снег}  9/3 2000 м средняя, верхняя 
[Ac lent|Cs]
-19 -21.3 82 -19  1036.3  -0.5  751  327           
21 18.02.18 тихо ()   н/о    9/0 верхняя 
[Cs]
-23.9 -26.6 78 -24  1036.8  -0.2  751  334           
00 19.02.18 040 (СВ) н/о  дымка  9/3 1000 м средняя, верхняя 
[Sc|Ac lent|Ci sp]
-21.8 -24.5 79 -22  1036.5  751  331  -24.5    0.0  54  равномерный
сухой снег
100% 
03 19.02.18 тихо ()   4000 м  дымка  10/0 средняя 
[As trans]
-17.9 -20.7 79 -18  1036.2  0.2  751  326           
06 19.02.18 230 (ЮЗ) 4000 м  слаб. снег  9/4 2000 м средняя, верхняя 
[Ac lent|Cs]
-11.4 -15.8 70 -11  1034.1  -1.2  751  317           
09 19.02.18 250 (З) 20000 м  {снег}  8/3 2000 м средняя, верхняя 
[Ac lent|Ci sp]
-8.5 -15.6 56 -10  1032.6  -1.1  750  313           
12 19.02.18 260 (З) н/о  {снег}  4/3 1000 м средняя 
[Sc|Ac lent]
-14.9 -18.8 72 -15  1033.2  -0.2  750  321    -8.2  0.0     
15 19.02.18 260 (З) н/о  позёмок  8/3 1000 м средняя, верхняя 
[Sc|Ac lent|Ci ing]
-10.9 -15.3 70 -15  1032.4  -0.3  749  316           
18 19.02.18 100 (В) 97{10}  н/о  слаб. снег  1/0 средняя 
[As op]
-14.3   1032.1  -0.1  749             
21 19.02.18 260 (З) н/о  слаб. снег  10/0 средняя 
[As op]
-10 -13.5 76 -15  1032  -0.1  749  315           
00 20.02.18 250 (З) н/о  слаб. снег  9/3 1000 м средняя, верхняя 
[Sc|Ac lent|Cs]
-10.4 -13.6 77 -14  1031.6  -0.5  749  315  -18.6    0.3  54  равномерный
сухой снег
100% 
03 20.02.18 260 (З) 4000 м  слаб. снег  10/4 1000 м средняя 
[Sc|As op]
-8.5 -11.2 81 -14  1030.5  -0.8  748  312           
09 20.02.18 270 (З) 4000 м  слаб. снег  10/3 1000 м средняя 
[Sc|As op]
-7 -9.8 80 -10  1029.8  0.1  748  310           
12 20.02.18 260 (З) н/о  слаб. снег  10/3 1000 м средняя 
[Sc|As op]
-7.5 -9.8 84 -10  1029.5  -0.3  748  311    -6.9     
15 20.02.18 270 (З) н/о  слаб. снег  10/0 средняя 
[As op]
-7.6 -10 83 -10  1029.2  -0.4  747  311           
18 20.02.18 270 (З) н/о  слаб. снег  10/0 средняя 
[As op]
-8.4 -10.9 82 -11  1028.7  -0.6  747  312           
21 20.02.18 260 (З) н/о  слаб. снег  10/0 средняя 
[As op]
-9.7 -12.2 82 -10  1028.3  -0.5  746  313           
00 21.02.18 260 (З) н/о  слаб. снег  10/0 средняя 
[As op]
-10 -11.7 87 -10  1027.3  -1  746  313  -10.4    0.9  54  равномерный
сухой снег
100% 
03 21.02.18 250 (З) 2000 м  снег  10/0 средняя 
[As op]
-8.5 -10.5 85 -10  1026.6  -0.4  745  311           
Время (UTC), дата Ветер
(°,м/с) 
Видим.   Явления Облачность Т
(°С)
Тd
(°С)
f(%) Тe
(°С)
Pmin
(гПа)
dP
(гПа)
Po
(мм)
O2
(г/м3)
Тmin Tmax R s Состояние
почвы

Для получения пояснительной информации подведите курсор к названию столбца.

ПОГОДА Ирбейское - архив

Всё, что Вы хотите узнать о погоде Ирбейское - удобно и подробно!

Выберите нужную дату (начиная с 1 января 2015* года) и нажмите кнопку "Найти".
Будут отображены архивные сводки погоды по пункту Ирбейское, начиная с указанной даты.


Отображать данные в формате CSV (для использования в таблицах Excel)


Внимание! Наш архив погоды предназначен исключительно для личного некоммерческого использования в познавательных целях. Если Вам необходимы официальные справки о состоянии погоды (для производственных, юридических, коммерческих и т.п. целей), обращайтесь в органы Росгидромета.

*Примечание: данная дата относится к архиву по метеостанциям СССР (Россия, СНГ, Балтия).
Архив по метеостанциям Зарубежной Европы и Азии (кроме Китая) хранится 10 дней, по другим регионам земного шара (Китай, Африка, Америка, Австралия, Океания) - 1 день.

Ирбейское - район местоположения метеостанции


Название, широта, долгота, высота метеостанции:
Ирбейское 55.6°ш. 95.5°д. 252 м над ур. моря [Российская Федерация]

Дополнительная информация

В oтличие oт бoльшинства пoгoдных сайтoв мы публикуем пoдрoбную метеoинфoрмацию в детальнoм прoфессиoнальнoм фoрмате.

Характеристики температуры и влажнoсти вoздуха измеряются на высoте 2 м в тени вдали oт зданий и деревьев.
Скoрoсть ветра измеряется на высoте 10 м (на урoвне рoста челoвека скoрoсть ветра ниже в 1.5-2 раза). Если метеoстанция нахoдится в гoрoде или в лесу, тo скoрoсть ветра занижена на 2-4 м/с пo сравнению с oткрытым местoм. Скoрoсть ветра над акватoриями крупных рек и oзёр, а также на вершинах хoлмoв на 2-5 м/с выше, чем в oбычных услoвиях.
Атмoсфернoе давление в разных тoчках местнoсти мoжет значительнo oтличаться oт давления на метеoстанции, в зависимoсти oт услoвий рельефа (при пoдъёме на 10 м давление пoнижается примернo на 1 мм рт.ст.).